Weather History for Defiance, OH

Change the Weather History Date:

Thursday, December 8, 2011

  Actual Average Record
Temperature  
Mean Temperature 30 °F -  
Max Temperature 34 °F 38 °F 63 °F (1946)
Min Temperature 26 °F 26 °F -1 °F (1977)
Degree Days  
Heating Degree Days 35    
Moisture  
Dew Point 24 °F    
Average Humidity 75    
Maximum Humidity 81    
Minimum Humidity 67    
Precipitation  
Precipitation 0.00 in - - ()
Sea Level Pressure  
Sea Level Pressure 30.20 in    
Wind  
Wind Speed 6 mph (SW)    
Max Wind Speed 14 mph    
Max Gust Speed 20 mph    
Visibility 9 miles    
Events      
Averages and records for this station are not official NWS values.
T = Trace of Precipitation, MM = Missing Value Source: NWS Daily Summary

Daily Weather History Graph

Daily Weather History Graph

Search for Another Location

Airport:

Trip Planner

Search our weather history database for the weather conditions in past years. The results will help you decide how hot, cold, wet, or windy it might be!

Date:

Astronomy

Dec. 08, 2011 Rise Set
Actual Time 7:50 AM EST 5:08 PM EST
Civil Twilight 7:19 AM EST 5:39 PM EST
Nautical Twilight 6:45 AM EST 6:13 PM EST
Astronomical Twilight 6:11 AM EST 6:47 PM EST
Moon 3:47 PM EST (12/8) 6:01 AM EST (12/8)
Length of Visible Light 10h 19m
Length of Day
9h 17m
Waxing Gibbous, 97% of the Moon is Illuminated
Dec 8
Waxing Gibbous
Dec 10
Full
Dec 17
Last Quarter
Dec 24
New
Jan 1
First Quarter

Hourly Weather History & Observations

Time (EST) Temp. Windchill Dew Point Humidity Pressure Visibility Wind Dir Wind Speed Gust Speed Precip Events Conditions
12:53 AM 30.9 °F 25.2 °F 21.0 °F 67% 30.10 in 10.0 mi WSW 5.8 mph - N/A   Overcast
1:45 AM 30.2 °F 25.4 °F 21.2 °F 69% 30.08 in 10.0 mi WSW 4.6 mph - N/A   Overcast
1:53 AM 30.0 °F 26.5 °F 21.9 °F 72% 30.10 in 10.0 mi WSW 3.5 mph - N/A   Overcast
2:53 AM 28.9 °F 22.8 °F 21.9 °F 75% 30.14 in 10.0 mi SW 5.8 mph - N/A   Mostly Cloudy
3:53 AM 28.0 °F 24.2 °F 21.0 °F 75% 30.15 in 10.0 mi WSW 3.5 mph - N/A   Scattered Clouds
4:53 AM 28.0 °F 22.8 °F 21.9 °F 78% 30.17 in 10.0 mi WSW 4.6 mph - N/A   Overcast
5:53 AM 27.0 °F 20.5 °F 21.9 °F 81% 30.18 in 9.0 mi SW 5.8 mph - N/A   Overcast
6:53 AM 27.0 °F 19.5 °F 21.9 °F 81% 30.21 in 8.0 mi SW 6.9 mph - N/A   Mostly Cloudy
7:53 AM 26.1 °F 20.5 °F 21.0 °F 81% 30.22 in 5.0 mi SW 4.6 mph - N/A   Haze
8:53 AM 27.0 °F 20.5 °F 21.9 °F 81% 30.25 in 6.0 mi SW 5.8 mph - N/A   Haze
9:53 AM 28.9 °F 23.9 °F 23.0 °F 78% 30.26 in 7.0 mi Variable 4.6 mph - N/A   Overcast
10:53 AM 30.0 °F 23.2 °F 23.0 °F 75% 30.27 in 7.0 mi WSW 6.9 mph - N/A   Overcast
11:53 AM 30.9 °F 22.8 °F 23.0 °F 72% 30.25 in 9.0 mi SW 9.2 mph - N/A   Overcast
12:53 PM 32.0 °F 23.0 °F 24.1 °F 73% 30.23 in 10.0 mi SSW 11.5 mph - N/A   Overcast
1:53 PM 33.1 °F 23.4 °F 24.1 °F 70% 30.22 in 10.0 mi SW 13.8 mph 19.6 mph N/A   Mostly Cloudy
2:53 PM 34.0 °F 25.0 °F 25.0 °F 70% 30.22 in 10.0 mi SW 12.7 mph - N/A   Overcast
3:53 PM 34.0 °F 26.0 °F 25.0 °F 70% 30.22 in 10.0 mi SW 10.4 mph 18.4 mph N/A   Overcast
5:53 PM 32.0 °F 26.4 °F 25.0 °F 75% 30.22 in 10.0 mi SW 5.8 mph - N/A   Clear
6:53 PM 32.0 °F 28.7 °F 26.1 °F 79% 30.22 in 10.0 mi SW 3.5 mph - N/A   Clear
7:53 PM 32.0 °F 27.5 °F 26.1 °F 79% 30.24 in 10.0 mi SW 4.6 mph - N/A   Partly Cloudy
8:53 PM 33.1 °F 28.7 °F 26.1 °F 75% 30.23 in 10.0 mi SW 4.6 mph - N/A   Overcast
9:53 PM 32.0 °F 26.4 °F 26.1 °F 79% 30.22 in 10.0 mi SSW 5.8 mph - N/A   Overcast
10:53 PM 33.1 °F 28.7 °F 27.0 °F 78% 30.23 in 10.0 mi SW 4.6 mph - N/A   Overcast
11:53 PM 33.1 °F 28.7 °F 26.1 °F 75% 30.23 in 10.0 mi SW 4.6 mph - N/A   Overcast